This demonstration page uses our WeatherBlox Daily Observations layout. Learn more.

Left ArrowRight Arrow

53.62937, 11.41316

Hourly Observations for September 16, 2015

Temp ( °F °C ) Dew Point ( °F °C ) Humidity (%) Winds ( mph kmh ) Pressure ( in mb ) Visibility ( mi km ) Precip ( " mm )
6:20 am 06:20 Cloudy 50 10 46 8 88 88 ENE 5 7 29.65 1004 30 48 N/A
6:50 am 06:50 Mostly Sunny 52 11 48 9 88 88 E 7 11 29.65 1004 7 11 N/A
7:20 am 07:20 Mostly Sunny 52 11 48 9 88 88 E 6 9 29.65 1004 7 11 N/A
7:50 am 07:50 Mostly Sunny 52 11 48 9 88 88 SE 7 11 29.65 1004 7 11 N/A
8:20 am 08:20 Mostly Sunny 52 11 48 9 88 88 ESE 6 9 29.65 1004 7 11 N/A
8:50 am 08:50 Mostly Sunny 54 12 48 9 82 82 SE 7 11 29.62 1003 7 11 N/A
9:20 am 09:20 Mostly Sunny 55 13 50 10 82 82 SE 8 13 29.62 1003 7 11 N/A
9:50 am 09:50 Mostly Sunny 55 13 50 10 82 82 SE 8 13 29.62 1003 7 11 N/A
10:20 am 10:20 Mostly Sunny 57 14 50 10 77 77 ESE 12 19 29.62 1003 7 11 N/A
10:50 am 10:50 Mostly Sunny 57 14 50 10 77 77 ESE 12 19 29.59 1002 7 11 N/A
11:20 am 11:20 Mostly Cloudy 59 15 52 11 77 77 ESE 12 19 29.59 1002 30 48 N/A
11:50 am 11:50 Mostly Cloudy 61 16 52 11 72 72 ESE 10 17 29.56 1001 30 48 N/A
12:20 pm 12:20 Mostly Cloudy 61 16 52 11 72 72 SE 8 13 29.56 1001 30 48 N/A
12:50 pm 12:50 Cloudy 61 16 52 11 72 72 ESE 12 19 29.53 1000 30 48 N/A
1:20 pm 13:20 Mostly Sunny 63 17 54 12 73 73 ESE 10 17 29.53 1000 7 11 N/A
1:50 pm 13:50 Cloudy 63 17 54 12 73 73 SE 13 20 29.53 1000 30 48 N/A
2:20 pm 14:20 Mostly Cloudy with Light Showers 63 17 54 12 73 73 SE 13 20 29.50 999 30 48 N/A
2:50 pm 14:50 Mostly Cloudy with Light Rain 64 18 55 13 73 73 SE 14 22 29.50 999 30 48 N/A
3:20 pm 15:20 Cloudy 64 18 57 14 78 78 SSE 15 24 29.50 999 30 48 N/A
3:50 pm 15:50 Cloudy 66 19 57 14 73 73 S 10 17 29.50 999 30 48 N/A
4:20 pm 16:20 Cloudy with Light Showers 64 18 57 14 78 78 SSE 12 19 29.50 999 30 48 N/A
4:50 pm 16:50 Cloudy with Light Rain 63 17 59 15 88 88 SSE 10 17 29.47 998 30 48 N/A
5:20 pm 17:20 Cloudy with Light Rain 63 17 59 15 88 88 SSE 12 19 29.47 998 30 48 N/A
5:50 pm 17:50 Cloudy with Light Rain 63 17 59 15 88 88 SSE 15 24 29.47 998 30 48 N/A
6:20 pm 18:20 Cloudy 63 17 59 15 88 88 SSE 15 24 29.47 998 30 48 N/A
6:50 pm 18:50 Cloudy with Light Rain 63 17 59 15 88 88 SSE 13 20 29.47 998 30 48 N/A

Powered by AerisWeather